Pompano Beach, FL

7:18 AM EST on December 11, 2017 (GMT -0500)
Pompano Beach

Weather History for KPMP - July, 2012

Change the Weather History Date:

Friday, July 13, 2012

  Actual Average Record
Temperature  
Mean Temperature 80 °F -  
Max Temperature 84 °F 92 °F 99 °F (1981)
Min Temperature 75 °F 74 °F 67 °F (1954)
Cooling Degree Days 14    
Growing Degree Days 30 (Base 50)    
Moisture  
Dew Point 74 °F    
Average Humidity 80    
Maximum Humidity 100    
Minimum Humidity 67    
Precipitation  
Precipitation 0.79 in - - ()
Sea Level Pressure  
Sea Level Pressure 30.03 in    
Wind  
Wind Speed 7 mph (ESE)    
Max Wind Speed 16 mph    
Max Gust Speed 21 mph    
Visibility 9 miles    
Events Fog , Rain , Thunderstorm    
Averages and records for this station are not official NWS values.
T = Trace of Precipitation, MM = Missing Value Source: NWS Daily Summary

Daily Weather History Graph

Daily Weather History Graph

Search for Another Location

Airport or City:

Trip Planner

Search our weather history database for the weather conditions in past years. The results will help you decide how hot, cold, wet, or windy it might be!

Date:

Astronomy

Jul. 13, 2012 Rise Set
Actual Time 6:36 AM EDT 8:15 PM EDT
Civil Twilight 6:11 AM EDT 8:41 PM EDT
Nautical Twilight 5:40 AM EDT 9:12 PM EDT
Astronomical Twilight 5:07 AM EDT 9:44 PM EDT
Moon 2:06 AM EDT (7/13) 3:47 PM EDT (7/13)
Length of Visible Light 14h 30m
Length of Day
13h 38m
Waning Crescent, 26% of the Moon is Illuminated
Jul 13
Waning Crescent
Jul 19
New
Jul 26
First Quarter
Aug 1
Full
Aug 9
Last Quarter

Hourly Weather History & Observations

Time (EDT) Temp. Heat Index Dew Point Humidity Pressure Visibility Wind Dir Wind Speed Gust Speed Precip Events Conditions
12:53 AM 80.1 °F 85.1 °F 75.0 °F 85% 30.03 in 10.0 mi ESE 3.5 mph - N/A   Partly Cloudy
1:53 AM 80.1 °F 85.1 °F 75.0 °F 85% 30.02 in 10.0 mi ESE 4.6 mph - N/A   Scattered Clouds
2:53 AM 81.0 °F 86.7 °F 75.0 °F 82% 30.01 in 10.0 mi East 5.8 mph - N/A   Partly Cloudy
3:53 AM 81.0 °F 86.7 °F 75.0 °F 82% 30.01 in 10.0 mi ESE 5.8 mph - N/A   Clear
4:41 AM 78.8 °F - 73.4 °F 83% 30.00 in 5.0 mi SSE 10.4 mph 18.4 mph 0.02 in Rain , Thunderstorm Light Rain
4:53 AM 78.1 °F - 75.0 °F 90% 30.01 in 10.0 mi South 4.6 mph - 0.03 in Rain , Thunderstorm Light Rain
4:56 AM 78.8 °F - 75.2 °F 89% 30.00 in 10.0 mi SSW 4.6 mph - 0.01 in   Mostly Cloudy
5:53 AM 75.9 °F - 75.0 °F 97% 30.01 in 4.0 mi SSW 3.5 mph - 0.03 in Rain Rain
6:53 AM 75.9 °F - 73.9 °F 94% 30.02 in 10.0 mi Calm Calm - 0.00 in   Clear
7:41 AM 75.2 °F - 75.2 °F 100% 30.04 in 1.8 mi East 15.0 mph 20.7 mph 0.09 in Rain Rain
7:53 AM 75.0 °F - 71.1 °F 87% 30.04 in 7.0 mi NE 11.5 mph - 0.22 in Rain Light Rain
7:59 AM 75.2 °F - 73.4 °F 94% 30.04 in 1.5 mi NE 16.1 mph 20.7 mph 0.15 in Rain Heavy Rain
8:03 AM 75.2 °F - 73.4 °F 94% 30.04 in 0.5 mi Variable 6.9 mph 20.7 mph 0.40 in Fog , Rain Heavy Rain
8:14 AM 78.8 °F - 73.4 °F 83% 30.04 in 10.0 mi East 5.8 mph - 0.43 in Rain Light Rain
8:53 AM 81.0 °F 86.2 °F 73.9 °F 79% 30.05 in 10.0 mi East 3.5 mph - 0.43 in   Mostly Cloudy
9:53 AM 82.9 °F 90.2 °F 75.0 °F 77% 30.06 in 10.0 mi East 9.2 mph - 0.00 in   Scattered Clouds
10:31 AM 82.4 °F 90.9 °F 77.0 °F 84% 30.06 in 10.0 mi SE 5.8 mph - 0.03 in   Mostly Cloudy
10:49 AM 84.2 °F 90.9 °F 73.4 °F 70% 30.06 in 10.0 mi East 10.4 mph - 0.03 in   Scattered Clouds
10:53 AM 84.0 °F 91.2 °F 73.9 °F 72% 30.06 in 10.0 mi East 10.4 mph - 0.03 in   Scattered Clouds
11:53 AM 84.9 °F 91.4 °F 73.0 °F 67% 30.07 in 10.0 mi ESE 10.4 mph - N/A   Scattered Clouds
12:53 PM 84.0 °F 91.2 °F 73.9 °F 72% 30.07 in 10.0 mi SE 15.0 mph 20.7 mph 0.01 in   Scattered Clouds
1:53 PM 84.0 °F 91.2 °F 73.9 °F 72% 30.06 in 10.0 mi SE 12.7 mph - 0.02 in   Scattered Clouds
2:53 PM 84.9 °F 92.1 °F 73.9 °F 69% 30.03 in 10.0 mi ESE 11.5 mph - N/A   Scattered Clouds
3:53 PM 84.0 °F 91.2 °F 73.9 °F 72% 30.02 in 10.0 mi East 12.7 mph - N/A   Partly Cloudy
4:53 PM 84.0 °F 90.2 °F 73.0 °F 69% 30.00 in 10.0 mi ESE 13.8 mph - N/A   Clear
5:53 PM 84.0 °F 90.2 °F 73.0 °F 69% 30.00 in 10.0 mi East 10.4 mph - N/A   Scattered Clouds
6:53 PM 82.9 °F 88.0 °F 72.0 °F 69% 30.01 in 10.0 mi East 10.4 mph - N/A   Scattered Clouds
7:53 PM 82.0 °F 87.4 °F 73.0 °F 74% 30.03 in 10.0 mi East 10.4 mph - N/A   Partly Cloudy
8:53 PM 82.0 °F 86.3 °F 71.1 °F 69% 30.05 in 10.0 mi ESE 10.4 mph - N/A   Partly Cloudy
9:53 PM 78.1 °F - 73.0 °F 84% 30.05 in 10.0 mi ESE 6.9 mph - 0.02 in Rain Light Rain
10:53 PM 80.1 °F 83.8 °F 72.0 °F 76% 30.06 in 10.0 mi ESE 6.9 mph - 0.00 in   Mostly Cloudy
11:53 PM 80.1 °F 84.5 °F 73.9 °F 81% 30.06 in 10.0 mi ESE 4.6 mph - N/A   Clear